Location: D�rnast
(49.6426°N, 11.9755°E)
Time: 14:57:08
(UTC+00:00)

BlueWalker 3 - Visible Passes

Search period start: 30 November 2022 00:00
Search period end: 10 December 2022 00:00
Orbit: 500 x 519 km, 53.2° (Epoch: 29 November)

Date Brightness Start Highest point End Pass type
(mag) Time Alt. Az. Time Alt. Az. Time Alt. Az.
30 Nov 2.2 16:36:16 10° W 16:40:10 62° NNW 16:42:28 23° ENE visible
30 Nov 4.0 18:15:23 10° WNW 18:17:18 26° WNW 18:17:18 26° WNW visible
01 Dec 2.2 16:17:55 10° W 16:21:49 61° NNW 16:24:49 16° ENE visible
01 Dec 3.3 17:57:02 10° WNW 17:59:38 35° NW 17:59:38 35° NW visible
02 Dec 2.2 15:59:33 10° W 16:03:27 60° NNW 16:07:09 11° ENE visible
02 Dec 2.6 17:38:39 10° WNW 17:41:58 47° NNW 17:41:58 47° NNW visible
03 Dec 2.2 17:20:17 10° WNW 17:24:07 52° N 17:24:20 51° NNE visible
03 Dec 5.3 18:59:03 10° WNW 18:59:09 11° WNW 18:59:09 11° WNW visible
04 Dec 2.2 17:01:54 10° WNW 17:05:44 52° N 17:06:43 40° ENE visible
04 Dec 4.8 18:40:40 10° WNW 18:41:33 16° WNW 18:41:33 16° WNW visible
05 Dec 2.2 16:43:30 10° WNW 16:47:21 53° N 16:49:09 28° ENE visible
05 Dec 4.2 18:22:16 10° WNW 18:23:59 24° WNW 18:23:59 24° WNW visible
06 Dec 2.2 16:25:06 10° WNW 16:28:57 54° N 16:31:39 18° E visible
06 Dec 3.3 18:03:52 10° WNW 18:06:29 38° W 18:06:29 38° W visible
07 Dec 2.2 16:06:42 10° WNW 16:10:34 55° NNE 16:14:14 11° E visible
07 Dec 2.5 17:45:27 10° WNW 17:49:05 57° SW 17:49:05 57° SW visible
08 Dec 2.1 15:48:17 10° WNW 15:52:09 56° NNE 15:56:00 10° E visible
08 Dec 2.5 17:27:03 10° WNW 17:30:53 55° SSW 17:31:48 42° SSE visible
09 Dec 2.6 17:08:37 10° WNW 17:12:27 52° SSW 17:14:41 22° SE visible
09 Dec 5.2 18:49:09 10° WSW 18:49:34 11° WSW 18:49:34 11° WSW visible
